Location: Arcizac
(43.0933°N, 0.0112°E)
Time: 09:39:49
(UTC+00:00)

Cosmos 1943 - Pass Details

Date: 14 December 2019
Orbit: 834 x 849 km, 71.0° (Epoch: 27 January)

Event Time Altitude Azimuth Distance (km) Brightness Sun altitude
Rises 19:31:46 0° 222° (SW) 3,382 6.9 -33.1°
Reaches altitude 10° 19:34:19 10° 229° (SW) 2,450 6.1 -33.5°
Enters shadow 19:39:04 43° 283° (WNW) 1,161 4.2 -34.4°
